Location: Bourg-d�Oueil
(42.8588°N, 0.4991°E)
Time: 20:10:06
(UTC+00:00)

Cosmos 1315 Rocket - Pass Details

Date: 16 June 2021
Orbit: 528 x 568 km, 81.2° (Epoch: 31 July)

Event Time Altitude Azimuth Distance (km) Brightness Sun altitude
Rises 20:19:03 0° 355° (N) 2,780 7.2 -6.7°
Reaches altitude 10° 20:21:19 10° 2° (N) 1,878 6.1 -7.0°
Maximum altitude 20:25:20 47° 76° (ENE) 758 3.3 -7.6°
Drops below altitude 10° 20:29:17 10° 151° (SSE) 1,854 4.9 -8.1°
Enters shadow 20:29:30 - 152° (SSE) 1,932 5.0 -8.1°
